Torna al catalogo

STARLINK-36176

AttivoComunicazioniVLEO
NORAD 67026·PAYLOAD·🇺🇸 United States

Lanciato Dec 10, 2025 da Vandenberg Space Force Base

Loading…

Prossimi Passaggi (prossime 24 ore)

TLE

AggiornatoSource: CelesTrak SupGP

Epoca: Sep 15, 2026, 02:40 UTC

1 67026C 25293Z   26258.11159722  .00071196  00000+0  59654-2 0  2585
2 67026  70.0022 336.6765 0003937 264.9081 172.2107 14.98299627    10

Traccia STARLINK-36176 in tempo reale con AllMySat

Download on the App Store